| time (UTC) | temp F | wind direction | speed MPH | gust MPH | rain 1hr in | rain 24hr in | rain mn in | humidity % | barometer mb |
| 20260505030003 | 61 | 0 | 0.0 | 0.0 | 0.00 | 0.00 | 0.00 | 47 | 1017.9 |
| 20260505025403 | 61 | 0 | 0.0 | 0.0 | 0.00 | 0.00 | 0.00 | 47 | 1017.9 |
| 20260505024503 | 61 | 271 | 0.0 | 2.0 | 0.00 | 0.00 | 0.00 | 48 | 1017.9 |
| 20260505023603 | 61 | 0 | 0.0 | 0.0 | 0.00 | 0.00 | 0.00 | 48 | 1017.9 |
| 20260505022703 | 61 | 332 | 0.0 | 5.0 | 0.00 | 0.00 | 0.00 | 48 | 1017.9 |
| 20260505021803 | 61 | 306 | 2.0 | 8.0 | 0.00 | 0.00 | 0.00 | 48 | 1017.9 |
| 20260505020903 | 62 | 327 | 0.0 | 7.0 | 0.00 | 0.00 | 0.00 | 47 | 1017.9 |
| 20260505020024 | 62 | 265 | 1.0 | 6.0 | 0.00 | 0.00 | 0.00 | 46 | 1017.9 |
| 20260505015403 | 62 | 289 | 1.0 | 8.0 | 0.00 | 0.00 | 0.00 | 45 | 1017.9 |
| 20260505014524 | 63 | 297 | 1.0 | 9.0 | 0.00 | 0.00 | 0.00 | 45 | 1017.9 |
| 20260505013624 | 63 | 283 | 1.0 | 14.0 | 0.00 | 0.00 | 0.00 | 44 | 1017.9 |
| 20260505012703 | 64 | 290 | 3.0 | 11.0 | 0.00 | 0.00 | 0.00 | 43 | 1017.9 |
| 20260505011803 | 65 | 282 | 4.0 | 14.0 | 0.00 | 0.00 | 0.00 | 41 | 1017.9 |
| 20260505010903 | 67 | 294 | 4.0 | 20.0 | 0.00 | 0.00 | 0.00 | 37 | 1017.9 |
| 20260505010024 | 69 | 273 | 1.0 | 10.0 | 0.00 | 0.00 | 0.00 | 32 | 1017.9 |
| 20260505005403 | 69 | 237 | 2.0 | 12.0 | 0.00 | 0.00 | 0.00 | 30 | 1017.9 |
| 20260505004503 | 69 | 191 | 3.0 | 12.0 | 0.00 | 0.00 | 0.00 | 30 | 1017.9 |
| 20260505003603 | 70 | 191 | 5.0 | 13.0 | 0.00 | 0.00 | 0.00 | 29 | 1017.9 |
| 20260505002724 | 71 | 198 | 4.0 | 13.0 | 0.00 | 0.00 | 0.00 | 28 | 1017.9 |
| 20260505001803 | 71 | 240 | 2.0 | 10.0 | 0.00 | 0.00 | 0.00 | 28 | 1017.9 |
| 20260505000903 | 71 | 233 | 1.0 | 6.0 | 0.00 | 0.00 | 0.00 | 29 | 1017.9 |
| 20260505000003 | 70 | 196 | 5.0 | 19.0 | 0.00 | 0.00 | 0.00 | 29 | 1017.9 |
| 20260504235403 | 70 | 196 | 7.0 | 19.0 | 0.00 | 0.00 | 0.00 | 29 | 1017.9 |
| 20260504234503 | 70 | 217 | 2.0 | 14.0 | 0.00 | 0.00 | 0.00 | 30 | 1017.9 |
| 20260504233603 | 70 | 181 | 1.0 | 10.0 | 0.00 | 0.00 | 0.00 | 33 | 1017.9 |
| 20260504232703 | 70 | 199 | 3.0 | 10.0 | 0.00 | 0.00 | 0.00 | 33 | 1017.9 |
| 20260504231803 | 70 | 58 | 3.0 | 12.0 | 0.00 | 0.00 | 0.00 | 34 | 1017.9 |
| 20260504230903 | 69 | 40 | 2.0 | 10.0 | 0.00 | 0.00 | 0.00 | 35 | 1017.9 |
| 20260504230003 | 69 | 44 | 4.0 | 10.0 | 0.00 | 0.00 | 0.00 | 35 | 1017.9 |
| 20260504225403 | 69 | 50 | 2.0 | 9.0 | 0.00 | 0.00 | 0.00 | 34 | 1017.9 |
| 20260504224503 | 69 | 206 | 3.0 | 9.0 | 0.00 | 0.00 | 0.00 | 34 | 1017.9 |
| 20260504223603 | 69 | 208 | 2.0 | 12.0 | 0.00 | 0.00 | 0.00 | 34 | 1017.9 |
| 20260504222703 | 70 | 153 | 0.0 | 5.0 | 0.00 | 0.00 | 0.00 | 36 | 1017.9 |
| 20260504221803 | 69 | 193 | 1.0 | 9.0 | 0.00 | 0.00 | 0.00 | 34 | 1017.9 |
| 20260504220903 | 70 | 197 | 2.0 | 9.0 | 0.00 | 0.00 | 0.00 | 31 | 1017.9 |
| 20260504220003 | 71 | 222 | 1.0 | 6.0 | 0.00 | 0.00 | 0.00 | 29 | 1017.9 |
| 20260504215403 | 71 | 250 | 2.0 | 6.0 | 0.00 | 0.00 | 0.00 | 28 | 1017.9 |
| 20260504214503 | 72 | 346 | 0.0 | 3.0 | 0.00 | 0.00 | 0.00 | 28 | 1017.9 |
| 20260504213603 | 72 | 351 | 1.0 | 8.0 | 0.00 | 0.00 | 0.00 | 29 | 1017.9 |
| 20260504212724 | 73 | 338 | 1.0 | 6.0 | 0.00 | 0.00 | 0.00 | 30 | 1017.9 |
| 20260504211803 | 71 | 333 | 1.0 | 7.0 | 0.00 | 0.00 | 0.00 | 32 | 1017.9 |
| 20260504210903 | 71 | 8 | 4.0 | 12.0 | 0.00 | 0.00 | 0.00 | 31 | 1017.9 |
| 20260504210003 | 71 | 7 | 5.0 | 13.0 | 0.00 | 0.00 | 0.00 | 32 | 1017.9 |
| 20260504205403 | 71 | 4 | 5.0 | 19.0 | 0.00 | 0.00 | 0.00 | 32 | 1017.9 |
| 20260504204524 | 71 | 9 | 6.0 | 19.0 | 0.00 | 0.00 | 0.00 | 32 | 1017.9 |
| 20260504203624 | 72 | 328 | 6.0 | 24.0 | 0.00 | 0.00 | 0.00 | 31 | 1017.9 |
| 20260504202703 | 74 | 334 | 3.0 | 10.0 | 0.00 | 0.00 | 0.00 | 26 | 1017.9 |
| 20260504201803 | 72 | 28 | 2.0 | 8.0 | 0.00 | 0.00 | 0.00 | 27 | 1017.9 |
| 20260504200903 | 71 | 90 | 2.0 | 8.0 | 0.00 | 0.00 | 0.00 | 32 | 1017.9 |
| 20260504200024 | 70 | 178 | 2.0 | 8.0 | 0.00 | 0.00 | 0.00 | 32 | 1017.9 |
| 20260504195403 | 70 | 68 | 2.0 | 9.0 | 0.00 | 0.00 | 0.00 | 32 | 1017.9 |
| 20260504194503 | 69 | 68 | 2.0 | 6.0 | 0.00 | 0.00 | 0.00 | 34 | 1017.9 |
| 20260504193603 | 69 | 67 | 1.0 | 5.0 | 0.00 | 0.00 | 0.00 | 36 | 1017.9 |
| 20260504192703 | 68 | 141 | 1.0 | 6.0 | 0.00 | 0.00 | 0.00 | 37 | 1017.9 |
| 20260504191824 | 68 | 62 | 0.0 | 5.0 | 0.00 | 0.00 | 0.00 | 37 | 1017.9 |
| 20260504190903 | 68 | 40 | 2.0 | 10.0 | 0.00 | 0.00 | 0.00 | 38 | 1017.9 |
| 20260504190003 | 68 | 58 | 1.0 | 7.0 | 0.00 | 0.00 | 0.00 | 37 | 1017.9 |
| 20260504185403 | 68 | 57 | 1.0 | 5.0 | 0.00 | 0.00 | 0.00 | 36 | 1017.9 |
| 20260504184503 | 68 | 66 | 3.0 | 6.0 | 0.00 | 0.00 | 0.00 | 37 | 1017.9 |
| 20260504183603 | 69 | 61 | 3.0 | 9.0 | 0.00 | 0.00 | 0.00 | 36 | 1017.9 |
| 20260504182703 | 68 | 4 | 1.0 | 4.0 | 0.00 | 0.00 | 0.00 | 37 | 1017.9 |
| 20260504181803 | 68 | 26 | 3.0 | 6.0 | 0.00 | 0.00 | 0.00 | 37 | 1017.9 |
| 20260504180924 | 67 | 7 | 1.0 | 5.0 | 0.00 | 0.00 | 0.00 | 38 | 1017.9 |
| 20260504180003 | 68 | 5 | 2.0 | 8.0 | 0.00 | 0.00 | 0.00 | 36 | 1017.9 |
| 20260504175403 | 68 | 22 | 3.0 | 12.0 | 0.00 | 0.00 | 0.00 | 39 | 1017.9 |
| 20260504174503 | 67 | 65 | 4.0 | 10.0 | 0.00 | 0.00 | 0.00 | 42 | 1017.9 |
| 20260504173624 | 66 | 61 | 2.0 | 9.0 | 0.00 | 0.00 | 0.00 | 43 | 1017.9 |
| 20260504172703 | 64 | 60 | 0.0 | 2.0 | 0.00 | 0.00 | 0.00 | 45 | 1017.9 |
| 20260504171803 | 63 | 0 | 0.0 | 1.0 | 0.00 | 0.00 | 0.00 | 46 | 1017.9 |
| 20260504170903 | 63 | 0 | 0.0 | 1.0 | 0.00 | 0.00 | 0.00 | 48 | 1017.9 |
| 20260504150903 | 66 | 64 | 2.0 | 8.0 | 0.00 | 0.00 | 0.00 | 40 | 1017.9 |
| 20260504140903 | 60 | 173 | 0.0 | 6.0 | 0.00 | 0.00 | 0.00 | 49 | 1017.9 |
| 20260504050003 | 67 | 73 | 0.0 | 8.0 | 0.00 | 0.00 | 0.00 | 20 | 1017.9 |
| 20260504045403 | 68 | 238 | 2.0 | 9.0 | 0.00 | 0.00 | 0.00 | 20 | 1017.9 |
| 20260504044504 | 68 | 245 | 2.0 | 9.0 | 0.00 | 0.00 | 0.00 | 18 | 1017.9 |
| 20260504043624 | 68 | 242 | 3.0 | 10.0 | 0.00 | 0.00 | 0.00 | 18 | 1017.9 |
| 20260504042703 | 68 | 234 | 2.0 | 8.0 | 0.00 | 0.00 | 0.00 | 18 | 1017.9 |
| 20260504041803 | 67 | 228 | 0.0 | 4.0 | 0.00 | 0.00 | 0.00 | 18 | 1017.9 |
| 20260504040903 | 68 | 233 | 1.0 | 7.0 | 0.00 | 0.00 | 0.00 | 18 | 1017.9 |
| 20260504040003 | 68 | 253 | 3.0 | 13.0 | 0.00 | 0.00 | 0.00 | 18 | 1017.9 |
| 20260504035403 | 68 | 252 | 3.0 | 13.0 | 0.00 | 0.00 | 0.00 | 18 | 1017.9 |
| 20260504034524 | 68 | 227 | 3.0 | 10.0 | 0.00 | 0.00 | 0.00 | 17 | 1017.9 |
| 20260504033624 | 69 | 219 | 3.0 | 9.0 | 0.00 | 0.00 | 0.00 | 17 | 1017.9 |
| 20260504032703 | 69 | 208 | 4.0 | 11.0 | 0.00 | 0.00 | 0.00 | 17 | 1017.9 |
| 20260504031803 | 69 | 200 | 4.0 | 11.0 | 0.00 | 0.00 | 0.00 | 17 | 1017.9 |
| 20260504030903 | 69 | 201 | 4.0 | 11.0 | 0.00 | 0.00 | 0.00 | 17 | 1017.9 |